This demonstration page uses our WeatherBlox Daily Observations layout. Learn more.

Left ArrowRight Arrow

Hourly Observations for April 29, 2021

Temp ( °F °C ) Dew Point ( °F °C ) Humidity (%) Winds ( mph kmh ) Pressure ( in mb ) Visibility ( mi km ) Precip ( " mm )
12:56 am 00:56 Clear 48 8.9 45 7.2 89 89 WNW 6 9 30.05 1018 10 16 0.00 0.00
1:56 am 01:56 Clear 47 8.3 45 7.2 93 93 NW 9 15 30.04 1017 10 16 0.00 0.00
2:56 am 02:56 Clear 44 6.7 42 5.6 93 93 NW 8 13 30.05 1018 10 16 0.00 0.00
3:56 am 03:56 Clear 44 6.7 42 5.6 93 93 WNW 8 13 30.05 1018 10 16 0.00 0.00
4:56 am 04:56 Clear 44 6.7 42 5.6 93 93 WNW 9 15 30.05 1018 10 16 0.00 0.00
5:56 am 05:56 Clear 42 5.6 41 5 96 96 WNW 8 13 30.07 1018 10 16 0.00 0.00
6:56 am 06:56 Sunny 44 6.7 41 5 89 89 WNW 8 13 30.09 1019 10 16 0.00 0.00
7:56 am 07:56 Sunny 48 8.9 42 5.6 80 80 NW 10 17 30.11 1020 10 16 0.00 0.00
8:56 am 08:56 Sunny 55 12.8 42 5.6 62 62 NW 13 20 30.12 1020 10 16 0.00 0.00
9:56 am 09:56 Sunny 60 15.6 42 5.6 52 52 NW 16 26 30.14 1021 10 16 0.00 0.00
10:56 am 10:56 Sunny 65 18.3 41 5 42 42 NNW 21 33 30.16 1021 10 16 0.00 0.00
11:56 am 11:56 Sunny 67 19.4 40 4.4 37 37 N 20 31 30.18 1022 10 16 0.00 0.00
12:56 pm 12:56 Sunny 67 19.4 37 2.8 33 33 N 18 30 30.18 1022 10 16 0.00 0.00
1:56 pm 13:56 Sunny 69 20.6 34 1.1 27 27 N 20 31 30.18 1022 10 16 0.00 0.00
2:56 pm 14:56 Sunny 70 21.1 35 1.7 28 28 NNE 20 31 30.18 1022 10 16 0.00 0.00
3:56 pm 15:56 Sunny 70 21.1 34 1.1 27 27 NNE 13 20 30.18 1022 10 16 0.00 0.00
4:56 pm 16:56 Sunny 70 21.1 33 0.6 26 26 NNE 16 26 30.17 1022 10 16 0.00 0.00
5:56 pm 17:56 Sunny 70 21.1 35 1.7 28 28 NNE 14 22 30.17 1022 10 16 0.00 0.00
6:56 pm 18:56 Sunny 69 20.6 33 0.6 26 26 N 10 17 30.19 1022 10 16 0.00 0.00
7:56 pm 19:56 Sunny 64 17.8 41 5 43 43 NE 7 11 30.19 1023 10 16 0.00 0.00
8:56 pm 20:56 Clear 59 15 38 3.3 46 46 ESE 7 11 30.20 1023 10 16 0.00 0.00
9:56 pm 21:56 Clear 57 13.9 37 2.8 47 47 SSE 7 11 30.22 1023 10 16 0.00 0.00
10:56 pm 22:56 Clear 53 11.7 36 2.2 52 52 S 7 11 30.22 1024 10 16 0.00 0.00
11:56 pm 23:56 Clear 53 11.7 36 2.2 52 52 S 8 13 30.22 1023 10 16 0.00 0.00

Powered by AerisWeather